Flag for U.S.A. Weather past 2 weeks in Myrtle Beach, South Carolina, U.S.A.

Now
88 °F

Scattered clouds.


Feels Like: 98 °F
Forecast: 73 / 88 °F
Wind: 13 mph from South

Location: Myrtle Beach Air Force Base

Current Time: Sep 3, 2015 at 4:12:58 PM

Latest Report: Sep 3, 2015 at 3:45 PM


Visibility: 10 mi

Pressure: 29.91 "Hg

Humidity: 66%

Dew point: 75 °F

Location of Myrtle BeachLocation

Historic Weather in Myrtle Beach — Graph

°F

Myrtle Beach temperature yesterday

Maximum temperature yesterday: 90 °F (at 11:45 AM)
Minimum temperature yesterday: 75 °F (at 1:35 AM)
Average temperature yesterday: 79 °F

Past Weeks' High & Low Weather Summary

 TemperatureHumidityPressure
High90 °F (Aug 21, 12:45 PM)89% (Aug 20, 1:35 AM)30.21 "Hg (Aug 20, 1:35 AM)
Low70 °F (Aug 23, 4:15 AM)48% (Aug 23, 11:50 AM)29.87 "Hg (Aug 25, 4:45 PM)
Average78 °F76%30.03 "Hg
* Reported Aug 19 2:00 PM — Sep 3 2:45 PM, Myrtle Beach, Weather by CustomWeather, © 2015

Note: Actual official high and low records may vary slightly from our data, if they occured in-between our weather recording intervals... More about our weather records

Advertising

Myrtle Beach weather history for previous 24 hours

 ConditionsComfort  
Time TempWeatherWind HumidityBarometerVisibility
2:45 PM
Thu, Sep 3
90 °FPartly sunny.12 mph63%29.93 "Hg10 mi
1:50 PM90 °FPartly sunny.9 mph63%29.95 "Hg10 mi
12:45 PM90 °FPassing clouds.7 mph59%29.95 "Hg10 mi
11:45 AM86 °FPartly sunny.5 mph66%29.97 "Hg10 mi
10:45 AM84 °FOvercast.5 mph66%29.98 "Hg10 mi
9:45 AM81 °FSunny.No wind74%29.98 "Hg10 mi
8:45 AM81 °FScattered clouds.No wind79%29.98 "Hg10 mi
8:00 AM77 °FPassing clouds.9 mph83%29.97 "Hg10 mi
7:45 AM77 °FClear.No wind79%29.96 "Hg10 mi
6:45 AM75 °FClear.6 mph83%29.95 "Hg7 mi
5:35 AM75 °FClear.No wind83%29.95 "Hg10 mi
5:15 AM75 °FClear.3 mph83%29.95 "Hg10 mi
4:55 AM77 °FClear.3 mph79%29.95 "Hg10 mi
4:35 AM77 °FClear.5 mph83%29.96 "Hg9 mi
4:15 AM75 °FClear.3 mph89%29.96 "Hg10 mi
3:55 AM75 °FClear.3 mph89%29.96 "Hg10 mi
3:35 AM75 °FClear.6 mph89%29.96 "Hg10 mi
3:15 AM75 °FClear.6 mph89%29.96 "Hg10 mi
2:55 AM75 °FClear.6 mph89%29.97 "Hg10 mi
2:35 AM75 °FClear.3 mph89%29.97 "Hg10 mi
2:15 AM77 °FClear.5 mph83%29.97 "Hg10 mi
1:55 AM77 °FClear.5 mph83%29.98 "Hg10 mi
1:35 AM77 °FClear.3 mph83%29.99 "Hg10 mi
1:15 AM77 °FClear.3 mph83%30.00 "Hg10 mi
12:35 AM79 °FClear.6 mph79%30.01 "Hg10 mi
11:35 PM
Wed, Sep 2
79 °FClear.7 mph79%30.01 "Hg10 mi
11:15 PM79 °FClear.6 mph79%30.01 "Hg10 mi
10:55 PM79 °FClear.7 mph79%30.01 "Hg10 mi
9:47 PM81 °FClear.6 mph70%30.00 "Hg10 mi
8:45 PM82 °FClear.7 mph70%29.98 "Hg10 mi
7:50 PM82 °FSunny.8 mph70%29.98 "Hg10 mi
6:47 PM86 °FPassing clouds.8 mph62%29.98 "Hg10 mi
4:45 PM90 °FSunny.13 mph55%30.01 "Hg10 mi
Weather by CustomWeather, © 2015

See weather overviewHow to use our weather pages